TimeEDT,TemperatureF,Dew PointF,Humidity,Sea Level PressureIn,VisibilityMPH,Wind Direction,Wind SpeedMPH,Gust SpeedMPH,PrecipitationIn,Events,Conditions,WindDirDegrees,DateUTC
12:52 AM,45.0,43.0,93,30.31,10.0,Calm,Calm,-,N/A,,Overcast,0,2012-10-09 04:52:00
1:52 AM,46.0,43.0,89,30.32,10.0,NNW,3.5,-,N/A,,Overcast,330,2012-10-09 05:52:00
3:52 AM,46.0,43.0,89,30.30,10.0,Calm,Calm,-,N/A,,Scattered Clouds,0,2012-10-09 07:52:00
4:52 AM,46.0,43.0,89,30.29,10.0,NW,4.6,-,N/A,,Clear,310,2012-10-09 08:52:00
5:52 AM,46.9,44.1,90,30.29,10.0,WNW,3.5,-,N/A,,Mostly Cloudy,290,2012-10-09 09:52:00
7:13 AM,48.2,44.6,87,30.29,10.0,Variable,3.5,-,N/A,,Overcast,0,2012-10-09 11:13:00
7:52 AM,48.9,44.1,83,30.30,10.0,North,4.6,-,N/A,,Overcast,360,2012-10-09 11:52:00
8:52 AM,50.0,45.0,83,30.30,10.0,North,3.5,-,0.00,,Overcast,360,2012-10-09 12:52:00
9:52 AM,50.0,45.0,83,30.30,10.0,NNW,3.5,-,N/A,,Overcast,340,2012-10-09 13:52:00
10:49 AM,50.0,44.6,82,30.28,10.0,North,5.8,-,0.00,,Overcast,350,2012-10-09 14:49:00
10:52 AM,50.0,45.0,83,30.29,10.0,Calm,Calm,-,0.00,,Overcast,0,2012-10-09 14:52:00
11:12 AM,51.8,46.4,82,30.28,10.0,North,5.8,-,N/A,,Overcast,10,2012-10-09 15:12:00
11:24 AM,51.8,46.4,82,30.28,10.0,North,6.9,-,N/A,,Overcast,350,2012-10-09 15:24:00
11:37 AM,51.8,46.4,82,30.27,10.0,NNW,4.6,-,N/A,,Overcast,340,2012-10-09 15:37:00
11:52 AM,51.1,46.0,83,30.28,10.0,North,4.6,-,N/A,,Overcast,350,2012-10-09 15:52:00
12:07 PM,51.8,46.4,82,30.26,10.0,North,4.6,-,N/A,,Overcast,10,2012-10-09 16:07:00
12:52 PM,54.0,46.9,77,30.26,10.0,North,4.6,-,N/A,,Overcast,360,2012-10-09 16:52:00
1:52 PM,55.0,46.9,74,30.24,10.0,Variable,4.6,-,N/A,,Overcast,0,2012-10-09 17:52:00
2:07 PM,55.4,46.4,72,30.22,10.0,NE,4.6,-,N/A,,Overcast,40,2012-10-09 18:07:00
2:36 PM,55.4,46.4,72,30.22,10.0,NE,4.6,-,N/A,,Overcast,50,2012-10-09 18:36:00
2:48 PM,53.6,46.4,77,30.22,10.0,East,5.8,-,N/A,,Overcast,90,2012-10-09 18:48:00
2:52 PM,55.0,46.9,74,30.23,10.0,ENE,8.1,-,N/A,,Overcast,70,2012-10-09 18:52:00
3:52 PM,54.0,46.9,77,30.21,10.0,Variable,5.8,-,N/A,,Overcast,0,2012-10-09 19:52:00
4:44 PM,53.6,46.4,77,30.20,10.0,ENE,3.5,-,N/A,,Overcast,60,2012-10-09 20:44:00
4:52 PM,54.0,46.9,77,30.21,10.0,East,3.5,-,N/A,,Overcast,80,2012-10-09 20:52:00
5:48 PM,53.6,46.4,77,30.19,10.0,Calm,Calm,-,N/A,,Overcast,0,2012-10-09 21:48:00
5:52 PM,54.0,46.9,77,30.20,10.0,Calm,Calm,-,N/A,,Overcast,0,2012-10-09 21:52:00
6:52 PM,53.1,46.9,80,30.20,10.0,NNE,3.5,-,N/A,,Overcast,30,2012-10-09 22:52:00
7:52 PM,53.1,46.9,80,30.20,10.0,Calm,Calm,-,N/A,,Overcast,0,2012-10-09 23:52:00
8:52 PM,52.0,46.9,83,30.20,10.0,Calm,Calm,-,N/A,,Overcast,0,2012-10-10 00:52:00
9:26 PM,51.8,46.4,82,30.19,10.0,NNE,3.5,-,N/A,,Overcast,30,2012-10-10 01:26:00
9:52 PM,52.0,45.0,77,30.19,10.0,Calm,Calm,-,N/A,,Overcast,0,2012-10-10 01:52:00
10:52 PM,51.1,46.0,83,30.19,10.0,Calm,Calm,-,N/A,,Overcast,0,2012-10-10 02:52:00
11:52 PM,51.1,45.0,80,30.16,10.0,Calm,Calm,-,N/A,,Overcast,0,2012-10-10 03:52:00